TimeAKST,TemperatureF,Dew PointF,Humidity,Sea Level PressureIn,VisibilityMPH,Wind Direction,Wind SpeedMPH,Gust SpeedMPH,PrecipitationIn,Events,Conditions,WindDirDegrees,DateUTC
4:53 AM,37.9,28.0,68,29.72,7.0,WSW,18.4,33.4,0.00,Snow,Light Snow,240,2013-11-14 13:53:00
5:11 AM,35.1,30.0,82,29.69,2.0,WSW,13.8,34.5,0.00,Snow,Light Snow,250,2013-11-14 14:11:00
5:21 AM,35.1,30.9,85,29.69,6.0,WSW,11.5,27.6,0.01,Snow,Light Snow,250,2013-11-14 14:21:00
5:42 AM,36.0,30.0,79,29.69,9.0,West,12.7,24.2,0.01,,Overcast,260,2013-11-14 14:42:00
5:53 AM,37.0,28.0,70,29.72,10.0,WSW,16.1,35.7,0.01,,Mostly Cloudy,250,2013-11-14 14:53:00
6:53 AM,37.0,27.0,67,29.70,10.0,WSW,17.3,28.8,N/A,,Mostly Cloudy,240,2013-11-14 15:53:00
7:53 AM,37.0,26.1,65,29.70,10.0,WSW,16.1,34.5,N/A,,Overcast,240,2013-11-14 16:53:00
8:53 AM,37.0,27.0,67,29.74,10.0,WSW,11.5,34.5,N/A,,Overcast,240,2013-11-14 17:53:00
9:53 AM,36.0,27.0,70,29.77,10.0,WSW,10.4,21.9,N/A,,Overcast,250,2013-11-14 18:53:00
10:11 AM,36.0,27.0,70,29.74,10.0,WSW,9.2,19.6,N/A,,Overcast,250,2013-11-14 19:11:00
10:18 AM,36.0,27.0,70,29.74,10.0,WSW,11.5,21.9,N/A,,Overcast,250,2013-11-14 19:18:00
10:53 AM,36.0,27.0,70,29.78,10.0,WSW,8.1,23.0,N/A,,Overcast,250,2013-11-14 19:53:00
11:36 AM,36.0,28.0,73,29.76,8.0,West,9.2,21.9,0.00,Snow,Light Snow,260,2013-11-14 20:36:00
11:53 AM,36.0,28.0,73,29.79,6.0,WSW,8.1,17.3,0.00,,Overcast,250,2013-11-14 20:53:00
12:53 PM,35.1,28.0,76,29.80,2.5,Variable,5.8,20.7,0.00,Snow,Light Snow,0,2013-11-14 21:53:00
1:13 PM,34.0,28.9,82,29.77,1.2,Variable,6.9,-,0.00,Snow,Light Snow,0,2013-11-14 22:13:00
1:45 PM,34.0,28.9,82,29.77,2.5,West,5.8,-,0.00,Snow,Light Snow,260,2013-11-14 22:45:00
1:53 PM,34.0,28.9,82,29.80,4.0,WSW,8.1,-,0.01,Snow,Light Snow,250,2013-11-14 22:53:00
2:03 PM,34.0,28.9,82,29.77,7.0,WSW,9.2,-,0.00,,Overcast,250,2013-11-14 23:03:00
2:37 PM,34.0,28.9,82,29.77,6.0,Variable,5.8,-,0.00,Snow,Light Snow,0,2013-11-14 23:37:00
2:53 PM,34.0,28.9,82,29.80,2.0,Variable,6.9,-,0.00,Snow,Light Snow,0,2013-11-14 23:53:00
3:09 PM,33.1,30.0,89,29.77,1.2,WSW,9.2,-,0.00,Snow,Light Snow,250,2013-11-15 00:09:00
3:23 PM,33.1,30.0,89,29.78,0.2,NW,9.2,-,0.01,Fog-Snow,Snow,310,2013-11-15 00:23:00
3:37 PM,30.9,28.0,89,29.79,1.0,WNW,15.0,23.0,0.02,Snow,Light Snow,290,2013-11-15 00:37:00
3:42 PM,30.9,26.1,82,29.79,3.0,WNW,11.5,26.5,0.02,Snow,Light Snow,290,2013-11-15 00:42:00
3:49 PM,30.2,26.6,86,29.80,9.0,WNW,12.7,23.0,0.02,,Overcast,290,2013-11-15 00:49:00
3:50 PM,30.9,26.1,82,29.83,9.0,West,13.8,23.0,0.02,,Overcast,280,2013-11-15 00:50:00
4:53 PM,28.9,19.0,67,29.88,10.0,WNW,13.8,21.9,N/A,,Overcast,290,2013-11-15 01:53:00
5:53 PM,28.0,15.1,58,29.93,10.0,WNW,16.1,27.6,N/A,,Overcast,300,2013-11-15 02:53:00
6:53 PM,27.0,12.0,53,29.98,10.0,WNW,10.4,20.7,N/A,,Clear,290,2013-11-15 03:53:00
7:53 PM,24.1,10.9,57,30.02,10.0,West,9.2,-,N/A,,Partly Cloudy,280,2013-11-15 04:53:00
8:53 PM,25.0,10.9,55,30.05,10.0,West,9.2,17.3,N/A,,Mostly Cloudy,280,2013-11-15 05:53:00
9:53 PM,24.1,10.9,57,30.08,10.0,Variable,3.5,-,N/A,,Overcast,0,2013-11-15 06:53:00
10:53 PM,24.1,10.9,57,30.10,10.0,WNW,6.9,-,N/A,,Overcast,290,2013-11-15 07:53:00
11:53 PM,21.9,10.9,63,30.12,10.0,WSW,6.9,-,N/A,,Partly Cloudy,240,2013-11-15 08:53:00